Regional Weather Roundup
Issued by NWS Upton, NY

Current Version | Previous Version | Text Only | Print | Product List | Glossary On
Versions: 1 2 3 4 5 6 7 8 9 10 11 12 13 14 15 16 17 18 19 20 21 22 23 24 25 26 27
000
ASUS41 KOKX 310704
RWROKX

REGIONAL WEATHER ROUNDUP
NATIONAL WEATHER SERVICE NEW YORK NY
300 AM EDT WED AUG 31 2016

NOTE: "FAIR" INDICATES FEW OR NO CLOUDS BELOW 12,000 FEET WITH NO
SIGNIFICANT WEATHER AND/OR OBSTRUCTIONS TO VISIBILITY.

NYZ071-072-176-178-NJZ106-104-310800-
NEW YORK CITY METRO AREA

CITY           SKY/WX    TMP DP  RH WIND       PRES   REMARKS
Central Park   PTCLDY    75  69  81 MISG      30.07S
LaGuardia APRT CLOUDY    77  71  82 S6        30.03S
Kennedy INTL   MOCLDY    74  71  91 S9        30.05S
Newark/Liberty MOCLDY    74  71  91 S5        30.04S
Bronx Bot Gard   N/A     73  68  83 CALM      30.05F
Wall St Helipt PTSUNNY   75  72  88 SW5       30.05S
Teterboro      CLOUDY    74  69  85 CALM      30.03S
$$

NYZ177-179-078>081-310800-
LONG ISLAND NEW YORK

CITY           SKY/WX    TMP DP  RH WIND       PRES   REMARKS
Farmingdale    PTCLDY    75  71  87 SW7       30.05S
MacArthur/ISP  MOCLDY    74  70  87 S9        30.04S
Shirley        PTCLDY    71  69  93 S3        30.05S
Riverhead      NOT AVBL
Westhampton    PTCLDY    63  59  87 CALM      30.06F
Southampton      N/A     73  70  88 SW3       30.01S
Bridgehampton  NOT AVBL
East Hampton   FAIR      64  62  94 CALM      30.04S
Montauk          N/A     72  67  84 SW5       30.06S
$$

NYZ052-065-067-310800-
HUDSON VALLEY

CITY           SKY/WX    TMP DP  RH WIND       PRES   REMARKS
White Plains   PTCLDY    71  68  90 CALM      30.05S
Newburgh       CLEAR     66  64  94 CALM      30.06S
Montgomery     CLEAR     62  60  93 CALM      30.04S
Poughkeepsie   CLEAR     61  60  97 CALM      30.03S
Albany         MOCLDY    63  58  83 CALM      30.01F
$$

NJZ001-105-106-008-010-013-015-019>022-104-310800-
NEW JERSEY

CITY           SKY/WX    TMP DP  RH WIND       PRES   REMARKS
Newark/Liberty MOCLDY    74  71  91 S5        30.04S
Teterboro      CLOUDY    74  69  85 CALM      30.03S
Caldwell       CLOUDY    72  68  87 CALM      30.05S
Morristown     CLOUDY    68  66  94 CALM      30.05S
Somerville     CLOUDY    68  65  90 CALM      30.03F
Linden         FAIR      73  70  89 CALM      30.06S
Sussex         CLOUDY    62  62 100 CALM      30.06S
Abdover          N/A     66  65  96 CALM      30.07S
Trenton        PTCLDY    71  69  93 S3        30.04S
Millville      FOG       66  66 100 W3        30.04S VSB 1/4
Atlantic City  FOG       68  66  93 CALM      30.04S VSB<1/4
Wrightstown    CLEAR     70  69  98 CALM      30.02S
Toms River     FOG       63  62  97 CALM      30.05S VSB 1/2
Belmar         CLEAR     72  71  97 S6        30.05F
$$

PAZ047>061-062-071-310800-
EASTERN PENNSYLVANIA

CITY           SKY/WX    TMP DP  RH WIND       PRES   REMARKS
Philadelphia   PTCLDY    73  71  93 S6        30.04S FOG
Allentown      CLEAR     64  60  87 CALM      30.05F
Scranton       MOCLDY    66  59  78 CALM      30.06S
$$

CTZ002-004>006-009-010-012-RIZ004-006-007-MAZ004-011-015-310800-
SOUTHERN NEW ENGLAND
 IN CT

CITY           SKY/WX    TMP DP  RH WIND       PRES   REMARKS
Bradley INTL   CLOUDY    64  59  83 CALM      30.04S
Hartford       PTCLDY    70  65  84 S5        30.03S
Danbury        CLEAR     63  63 100 CALM      30.06S
Wtrbury/Oxford   N/A     64  61  88 CALM      30.06S
Bridgeport     PTCLDY    76  70  82 SW8       30.04S
Meriden        CLOUDY    66  62  87 CALM      30.04S
New Haven      PTCLDY    74  69  85 SW5       30.04S
Chester        FAIR      70  68  94 SW5       30.05S
Groton         CLOUDY    69  65  86 CALM      30.04S
Wilimantic     PTCLDY    62  61  96 CALM      30.05F

 IN RI

CITY           SKY/WX    TMP DP  RH WIND       PRES   REMARKS
Providence     CLEAR     66  63  90 S5        30.04F
Block Island   CLOUDY    71  67  87 SW8       30.05S
Westerly       PTCLDY    65  61  87 CALM      30.05S
 IN MA

CITY           SKY/WX    TMP DP  RH WIND       PRES   REMARKS
Boston         CLEAR     69  64  84 SW12      30.01S
Worcester      CLEAR     62  59  90 SW6       30.05S
Westfield      CLEAR     59  58  96 S3        30.03S
Provincetown   CLEAR     68  65  90 SW9       30.03F
Nantucket      CLEAR     68  63  84 S9        30.05F
$$

ANZ330-335-338-340-345-350-353-355-310800-
COASTAL MARINE OBSERVATIONS


STATION/POSITION TIME  SKY/WX   TEMP    WIND        PRES    VSBY  WAVE
                                AIR SEA DIR/SP/G                  HT/PER
                 (UTC)          (F)     (DEG/KT/KT) (MB)    (MI)  (FT/S)
NY HARB ENTRANCE 0550            76 77  180/ 10/ 12 1017.2          4/11
20S FIRE ISLAND  0550            76 75  190/ 10/ 12 1017.2          5/11
GREAT SOUTH BAY  0600            75 79  200/ 10/ 10   N/A
23 SSW MONTAUK P 0550            76 77  220/ 10/ 12 1017.8          4/12
15 E BARNEGAT LI 0600               77                N/A           5/11
HUDSON CANYON    0550            76 78              1017.4          4/11
KINGS POINT      0600            75 77              1017.1
EXECUTION ROCKS  0600            75     190/  6/  8   N/A
CENTRAL LI SOUND 0600            74 76  210/ 12/ 14   N/A           1/ 3
EASTERN LI SOUND 0600            71 70  230/  2/  4   N/A
ROBBINS REEF     0600            75     190/  5/  6 1016.7
$$


>>>>>>>>>>>>>>>>>>>>>>>>>>>> KEY <<<<<<<<<<<<<<<<<<<<<<<<<<<
>                                                          <
>     SKY/WX - Sky Condition/Present Weather               <
>     TMP    - Temperature in Fahrenheit                   <
>     DP     - Dew Point in Fahrenheit                     <
>     RH     - Relative Humidity in Percent                <
>     WIND   - Direction (from) and Speed in MPH           <
>     PRES   - Mean Sea Level Pressure (inches of Hg)      <
>     WCI    - Wind Chill Index                            <
>     VSB    - VISIBILITY IN MILES                         <
>     HX     - HEAT INDEX                                  <
>     TC     - TEMPERATURE IN CELSIUS                      <
>     VRB    - VARIABLE WIND DIRECTION                     <
>                                                          <
>>>>>>>>>>>>>>>>>>>>>>>>>>>> KEY <<<<<<<<<<<<<<<<<<<<<<<<<<<




USA.gov is the U.S. government's official web portal to all federal, state and local government web resources and services.